www.pogodaiklimat.ru

Погода и климат >> Архив погоды >> Малайзия >> Алор Стар


ПОГОДА в Алор Стар

  • Прогноз погоды в Алор Стар
  • Монитор погоды в Алор Стар

АРХИВ ПОГОДЫ в Алор Стар

Время (UTC), дата Ветер
(напр.,м/с)
 
Видим.   Явления Облачность Т
(С)
Тd
(С)
f
(%)
Тe
(С)
Тes
(С)
Комфортность P
(гПа)
Po
(гПа)
Тmin
(С)
Tmax
(С)
R
(мм)
R24
(мм)
S
(см)
12 14.04 В 2 6000 м гроза, ливневой дождь 9/4 240 м
[Cb cap Ac lent Cs]
+24.3 +24.0 98 +33 +33 очень
душно
1010.0 1009.5 +35.9 49
18 14.04 З 1 10 км мгла 9/3 900 м
[Sc Ac lent Ci sp]
+24.6 +24.3 98 +34 +34 очень
душно
1009.8 1009.3 4
00 15.04 ЮВ 1 12 км мгла 8/1 500 м
[Cb cap Ac lent Ci sp]
+24.6 +24.2 98 +34 +35 очень
душно
1010.5 1010.0 +23.9 53
06 15.04 З 2 12 км мгла 9/3 600 м
[Cu med, cong Ac trans Ci sp]
+32.8 +27.8 75 +53 +61 опасность
перегрева
1009.7 1009.2
12 15.04 З 2 12 км мгла 9/3 900 м
[Sc Ac lent Ci sp]
+30.0 +27.8 88 +49 +49 опасность
перегрева
1008.0 1007.5 +33.3
18 15.04 В 2 10 км мгла 9/1 900 м
[Sc Ac lent Ci sp]
+28.3 +26.9 92 +44 +44 опасность
перегрева
1010.1 1009.6
00 16.04 СВ 1 10 км мгла 8/1 600 м
[Cu med, cong Ac trans Ci sp]
+27.5 +26.4 94 +42 +43 опасность
перегрева
1009.2 1008.7 +24.7
06 16.04 ЮЗ 3 12 км мгла 9/4 600 м
[Cu hum Ac lent Ci fib]
+33.7 +28.9 76 +57 +63 опасность
перегрева
1009.3 1008.9
12 16.04 В 1 9000 м зарница {гроза, ливн. осадки} 9/4 500 м
[Cb cap Ac lent Cs]
+26.7 +25.0 90 +38 +38 очень
душно
1009.3 1008.8 +34.8 9
18 16.04 СВ 1 10 км мгла 9/4 900 м
[Sc Ac lent Ci sp]
+26.1 +25.2 95 +38 +38 очень
душно
1010.8 1010.3
00 17.04 С 1 10 км мгла 9/3 600 м
[Cu hum Ac lent Ci fib]
+25.8 +25.0 95 +37 +37 очень
душно
1010.1 1009.6 +25.2 9
06 17.04 Ю 1 12 км мгла 9/3 600 м
[Cu med, cong Ac lent Ci sp]
+34.3 +26.7 65 +52 +62 опасность
перегрева
1009.4 1008.9
12 17.04 ЮЗ 1 10 км мгла 9/3 600 м
[Sc Ac lent Ci sp]
+30.1 +27.4 86 +49 +49 опасность
перегрева
1008.0 1007.5 +34.6
18 17.04 С 1 10 км мгла 9/3 900 м
[Sc Ac lent Ci fib]
+28.2 +26.8 92 +44 +44 опасность
перегрева
1009.4 1008.9
00 18.04 штиль 0 9000 м мгла 9/1 600 м
[Cu med, cong Ac trans Ci sp]
+27.1 +26.1 94 +41 +41 опасность
перегрева
1009.3 1008.8 +25.9
06 18.04 З 2 12 км мгла 9/4 600 м
[Cu med, cong Ac lent Ci sp]
+34.5 +27.6 67 +54 +62 опасность
перегрева
1009.6 1009.1
12 18.04 СЗ 1 10 км гроза, ливневой дождь 9/4 300 м
[Cb cap Ac lent Ci sp]
+27.0 +24.9 88 +39 +39 очень
душно
1008.2 1007.7 +35.3 0.2
18 18.04 штиль 0 10 км мгла 9/3 900 м
[Sc Ac lent Ci fib]
+26.4 +25.2 93 +38 +38 очень
душно
1009.4 1008.9 0.0
00 19.04 штиль 0 10 км мгла 9/1 600 м
[Cu hum Ac lent Ci sp]
+26.0 +25.0 94 +37 +38 очень
душно
1008.7 1008.2 +25.4 0.2
06 19.04 ЮЗ 1 12 км мгла 8/3 600 м
[Cu med, cong Ac trans Ci sp]
+34.5 +25.6 60 +49 +61 опасность
перегрева
1008.1 1007.6
12 19.04 З 2 12 км мгла 8/1 900 м
[Sc Ac trans Ci sp]
+31.0 +27.8 83 +51 +51 опасность
перегрева
1005.9 1005.5 +35.3
18 19.04 СВ 1 12 км мгла 8/1 900 м
[Sc Ac lent Ci sp]
+28.4 +26.8 91 +44 +44 опасность
перегрева
1008.0 1007.5
00 20.04 СВ 1 12 км мгла 8/1 600 м
[Cu med, cong Ac trans Ci sp]
+27.3 +25.9 92 +41 +41 опасность
перегрева
1007.6 1007.1 +26.0
06 20.04 З 3 12 км мгла 9/4 600 м
[Cu hum Ac lent Ci fib]
+35.1 +26.5 61 +52 +58 опасность
перегрева
1007.0 1006.5
12 20.04 СВ 3 10 км гроза, ливневой дождь 9/5 500 м
[Cb cap Ac lent Cs]
+29.1 +25.9 83 +44 +44 опасность
перегрева
1005.2 1004.7 +35.7
18 20.04 В 2 10 км мгла {гроза, дождь} 9/4 900 м
[Sc Ac lent Ci sp]
+26.4 +25.0 92 +38 +38 очень
душно
1006.8 1006.3 3
00 21.04 В 2 12 км мгла 9/3 600 м
[Cu hum Ac lent Cs]
+26.5 +25.1 92 +38 +39 очень
душно
1006.9 1006.4 +25.9 3
06 21.04 Ю 1 12 км мгла 9/4 600 м
[Cu med, cong Ac lent Ci sp]
+34.6 +27.1 65 +53 +61 опасность
перегрева
1005.0 1004.6

 

Местоположение метеостанции Алор Стар (Малайзия): широта 6.20 долгота 100.40 высота над уровнем моря 5 м.

В архиве по умолчанию представлена погода в Алор Стар за последнюю неделю. Архивные данные за месяц целиком и за предыдущие месяцы, начиная с января 2011 года, Вы можете получить, выбрав интересующий диапазон дат из раскрывающегося списка и нажав кнопку "Ввод!".


*Определитесь, кто Вы:
робот инопланетянин человек

Внимание! Время в таблицах - всемирное. Для получения местного времени необходимо прибавить поправку, которая равна 7 ч.

Смотрите также архив погоды в соседних городах и на ближайших метеорологических станциях:

Погода в Сатуне (Таиланд) (61 км)
Погода в Хо Хонг Агромете (Таиланд) (61 км)
Погода в Садао (Таиланд) (67 км)
Погода в Лангкави (Малайзия) (75 км)
Погода в Хатъяе (Таиланд) (80 км)
Погода на Авиабазе Баттерворт (Малайзия) (81 км)
Погода в Пенанге (Малайзия) (101 км)
Погода в Яла Агромете (Таиланд) (104 км)
Погода в Паттани (Таиланд) (105 км)
Погода в Сонгкхле (Таиланд) (114 км)

Пояснения к столбцам:

Ветер - указаны скорость ветра в м/с - средняя за 10 мин, порывы в срок и между сроками (в фигурных скобках) и направление, откуда дует ветер: С - северный, СВ - северо-восточный, В - восточный, ЮВ - юго-восточный, Ю - южный, ЮЗ - юго-западный, З - западный, СЗ - северо-западный.
Видимость - горизонтальная дальность видимости в метрах или километрах. При видимости от 1 до 10 км при отсутствии осадков обычно наблюдается дымка, при ухудшении видимости до 1 км и менее - туман. В сухую погоду видимость может ухудшаться дымом, пылью или мглою.
Явления - указаны атмосферные явления, наблюдавшиеся в срок или в последний час перед сроком; фигурными скобками обозначены явления, наблюдавшиеся между сроками (за 1-3 часа до срока); квадратными скобками обозначены град или гололедные отложения с указанием их диаметра в мм.
Облачность - указаны через наклонную черту общая и нижняя облачность в баллах и высота нижней границы облаков в метрах; квадратными скобками обозначены формы облаков: Ci - перистые, Cs - перисто-слоистые, Cc - перисто-кучевые, Ac - высококучевые, As - высокослоистые, Sc - слоисто-кучевые, Ns - слоисто-дождевые, Cu - кучевые, Cb - кучево-дождевые. Подробнее классификацию облаков см. в Атласе облаков (PDF).
T - Температура воздуха - температура, измеренная на высоте 2 м над землей.
Td - Температура точки росы - температура, при понижении до которой содержащийся в воздухе водяной пар достигнет насыщения.
f - Относительная влажность воздуха - влажноcть воздуха, измеренная на высоте 2 м над землей.
Te - Эффективная температура - температура, которую ощущает одетый по сезону человек в тени. Характеристика душности погоды. При расчете учитывается влияние влажности воздуха и скорости ветра на теплоощущения человека.
Tes - Эффективная температура на солнце - температура, которую ощущает человек, с поправкой на солнечный нагрев. Характеристика знойности погоды. Зависит от высоты солнца над горизонтом, облачности и скорости ветра. Ночью, в пасмурную погоду, а также при ветре 12 м/с и более поправка равна нулю.
P - Атмосферное давление - приведенное к уровню моря атмосферное давление.
Po - Атмосферное давление - измеренное на уровне метеостанции атмосферное давление.
Tmin - Минимальная температура - минимум температуры воздуха на высоте 2 м над землей.
Tmax - Максимальная температура - максимум температуры воздуха на высоте 2 м над землей.
R - Количество осадков - Количество выпавших осадков за период времени, мм. При наведении курсора мыши на число - период времени, за который выпало указанное количество осадков.
R24 - Количество осадков - Количество выпавших осадков за 24 часа, мм.
S - Снежный покров - Высота снежного покрова, см. При наведении курсора мыши на число - состояние снежного покрова и степень покрытия местности в баллах.